�������l�o���
Date,Time,MP-1(��Sv/h),MP-2(��Sv/h),MP-3(��Sv/h),MP-4(��Sv/h),MP-5(��Sv/h),MP-6(��Sv/h),MP-7(��Sv/h),MP-8(��Sv/h),����,����(m/s),���J
2017/04/11,00:00,1.028,1.673,1.129,1.994,1.389,0.545,1.000,0.928,��,6.4,��
2017/04/11,00:10,1.027,1.675,1.130,1.995,1.387,0.544,1.001,0.928,��,6.7,��
2017/04/11,00:20,1.027,1.673,1.131,1.994,1.387,0.545,1.002,0.928,��,6.6,��
2017/04/11,00:30,1.028,1.674,1.131,1.995,1.387,0.545,0.998,0.927,��,6.2,��
2017/04/11,00:40,1.028,1.673,1.130,1.996,1.388,0.545,1.000,0.927,��,6.3,��
2017/04/11,00:50,1.027,1.673,1.130,1.992,1.387,0.544,1.002,0.927,��,5.9,��
2017/04/11,01:00,1.026,1.676,1.129,1.995,1.388,0.544,1.000,0.928,��쐼,6.8,��
2017/04/11,01:10,1.025,1.673,1.129,1.995,1.384,0.546,1.000,0.927,��쐼,6.8,��
2017/04/11,01:20,1.027,1.670,1.130,1.996,1.388,0.546,1.001,0.928,��,6.9,��
2017/04/11,01:30,1.028,1.672,1.132,1.997,1.387,0.546,0.999,0.928,��,6.1,��
2017/04/11,01:40,1.026,1.671,1.132,1.994,1.386,0.545,1.002,0.928,��,6.7,��
2017/04/11,01:50,1.028,1.674,1.129,1.993,1.387,0.545,0.998,0.927,��쐼,5.9,��
2017/04/11,02:00,1.027,1.673,1.130,1.993,1.387,0.546,0.999,0.929,��쐼,6.1,��
2017/04/11,02:10,1.027,1.674,1.130,1.996,1.386,0.544,0.999,0.928,��,5.3,��
2017/04/11,02:20,1.027,1.672,1.130,1.994,1.387,0.546,1.002,0.928,��,5.4,��
2017/04/11,02:30,1.028,1.674,1.129,1.993,1.386,0.546,0.999,0.928,��쐼,4.9,��
2017/04/11,02:40,1.028,1.674,1.130,1.995,1.386,0.545,1.001,0.929,��,4.5,��
2017/04/11,02:50,1.030,1.673,1.131,1.994,1.386,0.547,1.000,0.928,��쐼,4.2,��
2017/04/11,03:00,1.029,1.675,1.130,1.992,1.387,0.545,1.000,0.929,��쐼,4.8,��
2017/04/11,03:10,1.029,1.674,1.128,1.992,1.384,0.545,0.999,0.927,��쐼,5.0,��
2017/04/11,03:20,1.027,1.672,1.129,1.996,1.386,0.544,1.002,0.930,��,6.1,��
2017/04/11,03:30,1.029,1.672,1.130,1.992,1.385,0.547,0.999,0.926,��,7.2,��
2017/04/11,03:40,1.030,1.673,1.132,1.998,1.386,0.545,1.002,0.930,��,7.9,��
2017/04/11,03:50,1.029,1.673,1.131,1.994,1.384,0.546,1.000,0.931,��,8.5,��
2017/04/11,04:00,1.028,1.673,1.128,1.993,1.388,0.545,1.001,0.927,��쐼,7.7,��
2017/04/11,04:10,1.028,1.674,1.131,1.994,1.388,0.546,1.000,0.928,��쐼,7.9,��
2017/04/11,04:20,1.030,1.674,1.131,1.995,1.385,0.546,1.002,0.930,��쐼,7.9,��
2017/04/11,04:30,1.031,1.673,1.130,1.994,1.390,0.546,1.003,0.930,��,7.3,��
2017/04/11,04:40,1.030,1.671,1.128,1.995,1.388,0.546,1.001,0.930,��,6.9,��
2017/04/11,04:50,1.027,1.673,1.132,1.997,1.385,0.546,1.001,0.929,��,6.2,��
2017/04/11,05:00,1.029,1.677,1.131,1.995,1.386,0.547,1.001,0.930,��,6.3,��
2017/04/11,05:10,1.026,1.672,1.129,1.994,1.385,0.547,1.000,0.929,��,6.5,��
2017/04/11,05:20,1.029,1.672,1.132,1.996,1.386,0.547,1.002,0.930,��,7.5,��
2017/04/11,05:30,1.030,1.672,1.132,1.994,1.385,0.546,1.001,0.931,��,6.4,��
2017/04/11,05:40,1.032,1.675,1.133,1.997,1.389,0.546,1.001,0.928,��,7.0,��
2017/04/11,05:50,1.030,1.673,1.131,1.999,1.388,0.548,1.003,0.928,��,6.5,��
2017/04/11,06:00,1.031,1.674,1.131,1.999,1.385,0.546,1.004,0.929,��,7.2,��
2017/04/11,06:10,1.029,1.671,1.132,1.999,1.386,0.546,1.004,0.930,��,7.6,��
2017/04/11,06:20,1.029,1.671,1.132,1.999,1.386,0.545,1.004,0.931,��,7.9,��
2017/04/11,06:30,1.030,1.676,1.132,1.996,1.389,0.545,1.004,0.929,��,6.5,��
2017/04/11,06:40,1.032,1.678,1.133,1.997,1.389,0.547,1.006,0.929,��,7.3,��
2017/04/11,06:50,1.032,1.677,1.126,1.999,1.388,0.547,1.004,0.931,��,6.2,��
2017/04/11,07:00,1.029,1.674,1.121,1.998,1.386,0.546,1.004,0.930,��,5.4,��
2017/04/11,07:10,1.031,1.675,1.134,1.997,1.386,0.547,1.006,0.931,��,6.0,��
2017/04/11,07:20,1.032,1.676,1.134,2.000,1.391,0.547,1.006,0.928,��쓌,5.9,��
2017/04/11,07:30,1.031,1.676,1.134,2.000,1.392,0.547,1.006,0.931,��,5.8,��
2017/04/11,07:40,1.032,1.674,1.134,1.996,1.390,0.547,1.004,0.930,��,6.1,��
2017/04/11,07:50,1.031,1.676,1.136,2.001,1.387,0.548,1.004,0.931,��,5.6,��
2017/04/11,08:00,1.028,1.677,1.135,1.998,1.388,0.546,1.004,0.931,��쓌,5.6,��
2017/04/11,08:10,1.031,1.672,1.134,1.998,1.391,0.548,1.005,0.933,��,6.5,��
2017/04/11,08:20,1.031,1.674,1.132,2.001,1.392,0.549,1.005,0.933,��,6.6,��
2017/04/11,08:30,1.032,1.678,1.128,2.000,1.392,0.549,1.004,0.931,��,6.6,��
2017/04/11,08:40,1.031,1.678,1.137,2.003,1.391,0.547,1.004,0.931,��,7.7,��
2017/04/11,08:50,1.033,1.676,1.134,2.002,1.391,0.547,1.002,0.933,��쓌,7.6,��
2017/04/11,09:00,1.030,1.678,1.134,2.001,1.390,0.549,1.002,0.933,��,8.1,��
2017/04/11,09:10,1.030,1.677,1.133,2.001,1.390,0.549,1.004,0.930,��,7.2,��
2017/04/11,09:20,1.032,1.679,1.134,2.002,1.389,0.548,1.003,0.932,��쓌,7.6,��
2017/04/11,09:30,1.033,1.679,1.133,2.002,1.389,0.549,1.003,0.931,��쓌,7.2,��
2017/04/11,09:40,1.033,1.677,1.124,2.002,1.386,0.548,1.003,0.933,��쓌,7.8,��
2017/04/11,09:50,1.032,1.679,1.137,2.001,1.384,0.547,1.003,0.932,��,7.7,��
2017/04/11,10:00,1.032,1.680,1.137,2.005,1.387,0.548,1.005,0.931,��,6.5,��
2017/04/11,10:10,1.031,1.680,1.135,2.003,1.389,0.548,1.002,0.932,��,6.8,��
2017/04/11,10:20,1.033,1.677,1.137,2.001,1.390,0.549,1.002,0.933,��,6.6,��
2017/04/11,10:30,1.032,1.679,1.137,2.003,1.389,0.549,1.002,0.933,��쓌,7.9,��
2017/04/11,10:40,1.034,1.679,1.137,2.002,1.389,0.550,1.003,0.933,��쓌,7.4,��
2017/04/11,10:50,1.034,1.682,1.140,2.003,1.387,0.550,1.004,0.931,��쓌,8.2,��
2017/04/11,11:00,1.035,1.683,1.138,2.003,1.392,0.550,1.003,0.933,��쓌,7.9,��
2017/04/11,11:10,1.035,1.680,1.138,1.999,1.391,0.551,1.003,0.933,��쓌,7.1,�L
2017/04/11,11:20,1.034,1.682,1.139,2.004,1.388,0.550,1.003,0.930,��쓌,8.8,�L
2017/04/11,11:30,1.034,1.681,1.138,2.003,1.392,0.550,1.004,0.932,��쓌,7.9,�L
2017/04/11,11:40,1.035,1.681,1.140,2.005,1.388,0.551,1.005,0.932,��쓌,8.6,�L
2017/04/11,11:50,1.037,1.682,1.139,2.001,1.391,0.551,1.005,0.932,��쓌,8.7,�L
2017/04/11,12:00,1.036,1.683,1.137,2.006,1.390,0.552,1.005,0.931,��쓌,8.7,�L
2017/04/11,12:10,1.036,1.678,1.139,2.002,1.390,0.553,1.005,0.930,�쓌,11.4,�L
2017/04/11,12:20,1.035,1.679,1.139,2.003,1.388,0.552,1.003,0.933,��쓌,11.1,�L
2017/04/11,12:30,1.037,1.680,1.137,2.001,1.389,0.552,1.004,0.931,��쓌,10.9,�L
2017/04/11,12:40,1.035,1.677,1.139,2.002,1.389,0.554,1.005,0.933,��쓌,9.6,�L
2017/04/11,12:50,1.037,1.675,1.138,2.001,1.385,0.552,1.004,0.933,�쓌,9.2,�L
2017/04/11,13:00,1.033,1.672,1.136,1.999,1.382,0.553,1.002,0.929,��쓌,11.1,�L
2017/04/11,13:10,1.032,1.665,1.136,1.994,1.376,0.551,1.001,0.931,��쓌,10.9,�L
2017/04/11,13:20,1.031,1.658,1.131,1.991,1.373,0.551,1.000,0.930,��쓌,8.8,�L
2017/04/11,13:30,1.028,1.656,1.128,1.988,1.366,0.551,0.998,0.929,��쓌,8.4,�L
2017/04/11,13:40,1.023,1.646,1.120,1.983,1.361,0.551,0.995,0.925,��쓌,7.6,�L
2017/04/11,13:50,1.021,1.639,1.120,1.973,1.356,0.548,0.995,0.923,�쓌,7.8,�L
2017/04/11,14:00,1.017,1.634,1.117,1.972,1.346,0.549,0.992,0.923,�쓌,8.5,�L
2017/04/11,14:10,1.012,1.627,1.115,1.963,1.344,0.547,0.989,0.923,�쓌,8.4,�L
2017/04/11,14:20,1.010,1.622,1.111,1.953,1.340,0.546,0.991,0.923,�쓌,8.6,�L
2017/04/11,14:30,1.006,1.614,1.106,1.949,1.333,0.546,0.988,0.919,��쓌,9.7,�L
2017/04/11,14:40,1.003,1.610,1.105,1.941,1.327,0.546,0.987,0.920,�쓌,7.1,�L
2017/04/11,14:50,1.001,1.604,1.101,1.935,1.323,0.546,0.984,0.917,�쓌,8.3,�L
2017/04/11,15:00,0.998,1.596,1.097,1.925,1.320,0.543,0.984,0.918,�쓌,7.1,�L
2017/04/11,15:10,0.994,1.592,1.094,1.921,1.314,0.543,0.982,0.914,�쓌,8.3,�L
2017/04/11,15:20,0.993,1.589,1.091,1.914,1.311,0.542,0.980,0.913,�쓌,9.2,�L
2017/04/11,15:30,0.991,1.583,1.086,1.908,1.307,0.542,0.979,0.912,�쓌,8.6,�L
2017/04/11,15:40,0.986,1.577,1.086,1.902,1.302,0.540,0.977,0.912,�쓌,10.9,�L
2017/04/11,15:50,0.987,1.567,1.079,1.890,1.291,0.539,0.975,0.909,�쓌,4.5,�L
2017/04/11,16:00,0.983,1.567,1.079,1.893,1.291,0.539,0.975,0.911,�쓌,5.5,�L
2017/04/11,16:10,0.981,1.567,1.078,1.887,1.290,0.538,0.973,0.909,�쓌,8.7,�L
2017/04/11,16:20,0.980,1.564,1.077,1.883,1.286,0.538,0.972,0.907,�쓌,6.5,�L
2017/04/11,16:30,0.980,1.559,1.076,1.880,1.282,0.536,0.971,0.907,�쓌,5.9,�L
2017/04/11,16:40,0.979,1.560,1.075,1.883,1.282,0.537,0.971,0.905,�쓌,4.0,�L
2017/04/11,16:50,0.978,1.557,1.073,1.877,1.278,0.537,0.971,0.904,���쓌,10.2,�L
2017/04/11,17:00,0.977,1.559,1.072,1.879,1.275,0.536,0.969,0.906,�쓌,6.4,�L
2017/04/11,17:10,0.977,1.557,1.072,1.873,1.272,0.537,0.970,0.905,�쓌,6.6,�L
2017/04/11,17:20,0.974,1.553,1.069,1.871,1.269,0.537,0.968,0.906,�쓌,6.9,�L
2017/04/11,17:30,0.971,1.545,1.067,1.867,1.265,0.535,0.967,0.904,��쐼,2.0,�L
2017/04/11,17:40,0.972,1.543,1.064,1.864,1.261,0.534,0.965,0.904,�쓌,6.0,�L
2017/04/11,17:50,0.971,1.542,1.062,1.862,1.256,0.534,0.965,0.901,�쓌,5.8,�L
2017/04/11,18:00,0.970,1.542,1.061,1.858,1.255,0.534,0.965,0.903,�쓌,6.4,�L
2017/04/11,18:10,0.971,1.542,1.063,1.859,1.252,0.534,0.965,0.901,��쓌,4.4,�L
2017/04/11,18:20,0.972,1.539,1.063,1.860,1.254,0.536,0.962,0.901,��쓌,2.3,�L
2017/04/11,18:30,0.971,1.540,1.061,1.857,1.249,0.535,0.963,0.901,��쓌,6.2,�L
2017/04/11,18:40,0.971,1.540,1.063,1.858,1.250,0.536,0.963,0.901,��,3.7,�L
2017/04/11,18:50,0.968,1.534,1.059,1.852,1.242,0.534,0.963,0.899,�k��,1.7,�L
2017/04/11,19:00,0.970,1.535,1.060,1.852,1.244,0.534,0.960,0.902,���k��,1.2,�L
2017/04/11,19:10,0.967,1.533,1.057,1.849,1.240,0.533,0.961,0.898,���쓌,3.3,�L
2017/04/11,19:20,0.967,1.531,1.056,1.844,1.236,0.534,0.959,0.899,-,CALM,�L
2017/04/11,19:30,0.968,1.534,1.058,1.847,1.238,0.533,0.958,0.901,��,4.0,�L
2017/04/11,19:40,0.974,1.536,1.059,1.851,1.239,0.537,0.960,0.898,���쓌,3.3,�L
2017/04/11,19:50,0.974,1.540,1.062,1.853,1.239,0.539,0.963,0.902,���쓌,3.9,�L
2017/04/11,20:00,0.977,1.545,1.065,1.855,1.243,0.538,0.963,0.902,��,4.6,�L
2017/04/11,20:10,0.976,1.548,1.064,1.861,1.242,0.538,0.965,0.902,���쓌,4.5,�L
2017/04/11,20:20,0.976,1.549,1.067,1.863,1.244,0.537,0.963,0.901,���쓌,5.9,�L
2017/04/11,20:30,0.979,1.551,1.071,1.866,1.250,0.537,0.966,0.904,���쓌,6.3,�L
2017/04/11,20:40,0.981,1.557,1.067,1.867,1.250,0.538,0.966,0.904,���쓌,5.3,�L
2017/04/11,20:50,0.981,1.556,1.072,1.871,1.250,0.536,0.968,0.904,��,5.0,�L
2017/04/11,21:00,0.981,1.557,1.070,1.870,1.249,0.538,0.967,0.904,���k��,5.6,�L
2017/04/11,21:10,0.982,1.560,1.070,1.871,1.253,0.536,0.966,0.905,���k��,4.9,�L
2017/04/11,21:20,0.980,1.556,1.069,1.868,1.250,0.538,0.967,0.908,���k��,5.4,�L
2017/04/11,21:30,0.981,1.557,1.070,1.869,1.252,0.537,0.969,0.904,�k��,6.2,�L
2017/04/11,21:40,0.982,1.558,1.070,1.873,1.253,0.538,0.968,0.906,�k��,5.9,�L
2017/04/11,21:50,0.983,1.558,1.071,1.875,1.258,0.536,0.969,0.905,�k�k��,7.2,�L
2017/04/11,22:00,0.983,1.559,1.072,1.872,1.258,0.536,0.969,0.906,�k�k��,6.4,�L
2017/04/11,22:10,0.984,1.559,1.072,1.875,1.257,0.535,0.970,0.904,�k,6.7,�L
2017/04/11,22:20,0.982,1.558,1.070,1.874,1.253,0.538,0.970,0.905,�k�k��,7.5,�L
2017/04/11,22:30,0.983,1.557,1.070,1.868,1.253,0.536,0.968,0.905,�k,7.4,�L
2017/04/11,22:40,0.982,1.554,1.070,1.867,1.250,0.536,0.970,0.905,�k,7.6,�L
2017/04/11,22:50,0.980,1.552,1.069,1.866,1.252,0.537,0.969,0.906,�k,7.3,�L
2017/04/11,23:00,0.980,1.553,1.069,1.868,1.254,0.537,0.968,0.906,�k�k��,8.6,�L
2017/04/11,23:10,0.979,1.551,1.072,1.866,1.253,0.537,0.968,0.907,�k�k��,8.0,�L
2017/04/11,23:20,0.981,1.549,1.068,1.864,1.250,0.536,0.967,0.905,�k�k��,8.7,�L
2017/04/11,23:30,0.977,1.553,1.068,1.864,1.253,0.536,0.968,0.904,�k�k��,9.6,�L
2017/04/11,23:40,0.981,1.552,1.068,1.869,1.249,0.536,0.969,0.906,�k�k��,9.6,�L
2017/04/11,23:50,0.978,1.551,1.068,1.866,1.252,0.535,0.970,0.904,�k�k��,9.9,�L
